Location: Devargunta
(16.7631°N, 80.9077°E)
Time: 09:52:07
(UTC+00:00)

Cosmos 540 Rocket - Pass Details

Date: 30 November 2021
Orbit: 739 x 754 km, 74.1° (Epoch: 16 January)

Event Time Altitude Azimuth Distance (km) Brightness Sun altitude
Rises 13:19:50 0° 233° (SW) 3,166 8.0 -18.5°
Reaches altitude 10° 13:23:23 10° 259° (WSW) 2,243 7.1 -19.3°
Maximum altitude 13:25:54 14° 289° (WNW) 1,994 6.4 -19.9°
Drops below altitude 10° 13:28:25 10° 319° (NW) 2,243 6.2 -20.4°
Sets 13:31:59 0° 345° (NNW) 3,166 6.7 -21.3°
